Regional Weather Roundup
Issued by NWS Green Bay, WI

Home | Current Version | Previous Version | Text Only | Print | Product List | Glossary On
Versions: 1 2 3 4 5 6 7 8 9 10 11 12 13 14 15 16 17 18 19 20 21 22 23 24 25 26 27 28 29 30 31 32 33 34 35 36 37 38 39 40 41 42 43 44 45 46 47 48 49 50
000
ASUS43 KGRB 281211
RWRGRB

NORTH-CENTRAL AND NORTHEAST WISCONSIN REGIONAL WEATHER ROUNDUP
NATIONAL WEATHER SERVICE GREEN BAY WI
700 AM CDT THU MAY 28 2015

WIZ005-009-010>012-018-019-281300-
NORTH CENTRAL WISCONSIN

CITY           SKY/WX    TMP DP  RH WIND       PRES   REMARKS
IRONWOOD       SUNNY     52  52 100 CALM      30.09S
MANITOWISH WTR SUNNY     53  53 100 CALM      30.13S
ARBOR VITAE    SUNNY     57  55  95 CALM      30.13F
EAGLE RIVER    SUNNY     55  55 100 SE3       30.15R
LAND O LAKES   SUNNY     52  52 100 CALM      30.16R
RHINELANDER    SUNNY     53  50  89 CALM      30.15S
PHILLIPS       SUNNY     57  55  94 CALM      30.12S
ANTIGO         SUNNY     55  55 100 CALM      30.16S
TOMAHAWK       SUNNY     53  52  97 CALM      30.15F
MERRILL        SUNNY     52  52 100 CALM      30.15S
$$

WIZ013-073-281300-
NORTHEAST WISCONSIN

CITY           SKY/WX    TMP DP  RH WIND       PRES   REMARKS
IRON MOUNTAIN  SUNNY     54  52  93 CALM      30.16R
MARINETTE      SUNNY     57  54  88 CALM      30.15S
OCONTO         SUNNY     56  56 100 CALM      30.16R
$$

WIZ017-030-035>037-045-281300-
CENTRAL WISCONSIN

CITY           SKY/WX    TMP DP  RH WIND       PRES   REMARKS
MEDFORD        SUNNY     56  55  97 CALM      30.13F
WAUSAU         SUNNY     57  56  96 E5        30.13S
MOSINEE        SUNNY     55  55 100 CALM      30.15R
MARSHFIELD     SUNNY     59  56  89 CALM      30.13S
WISC RAPIDS    SUNNY     59  56  89 CALM      30.14F
STEVENS POINT  SUNNY     55  55  99 CALM      30.15S
WAUPACA        SUNNY     59  58  96 CALM      30.15S
SHAWANO        SUNNY     58  57  96 CALM      30.16S
CLINTONVILLE   SUNNY     55  55 100 CALM      30.15S FOG
$$

WIZ038-039-048-051-281300-
FOX VALLEY

CITY           SKY/WX    TMP DP  RH WIND       PRES   REMARKS
NWS GREEN BAY  SUNNY     61  57  87 CALM      30.15S
APPLETON       SUNNY     61  57  88 CALM      30.16R
OSHKOSH        SUNNY     64  58  80 VRB5      30.15R
FOND DU LAC    SUNNY     65  58  78 SW6       30.16R
$$

WIZ022-050-052-281300-
EAST CENTRAL WISCONSIN

CITY           SKY/WX    TMP DP  RH WIND       PRES   REMARKS
STURGEON BAY   SUNNY     55  52  88 CALM      30.18S
MANITOWOC      SUNNY     55  52  89 CALM      30.17R
SHEBOYGAN      SUNNY     66  60  81 CALM      30.15S
$$

LMZ563-521-522-541>543-281300-
LAKESHORE

STATION/POSITION TIME  TEMP    WIND        PRES    VSBY  WAVE
                       AIR SEA DIR/SP/G                  HT/PER
                 (UTC) (F)     (DEG/KT/KT) (MB)    (MI)  (FT/S)
SHEBOYGAN LKSHOR 1200   60     180/  4/  4 1021.3S
KEWAUNEE LKSHORE 1100   49     190/  4/  5 1020.2R
ALGOMA MARINA    1108             CALM       N/A
NORTHPORT PIER   1100   50      CALM  /  4 1020.7R
N MID LAKE BUOY  1150   40 36  230/  6/  6 1021.8R         1/ 4
SISTER BAY LKSHO 1103   51        CALM       N/A
CHAMBERS ISLAND  1100   58     210/  2/  4 1021.0R
MENOMINEE LKSHOR 1100   58     220/  5/  6 1021.3R
$$


USA.gov is the U.S. government's official web portal to all federal, state and local government web resources and services.